#timestamp,LO_Frequency,Hit,StdDev 
1619478015.3,286047001.7,N
1619478035.2,286047000.0,N
1619478055.0,286047000.7,N
1619478055.9,286047000.7,N
1619478075.8,286047001.1,N
1619478095.6,286047000.8,N
1619478115.4,286047000.2,N
1619478135.3,286046998.5,N
1619478155.1,286047000.8,N
1619478175.9,286046998.1,N
1619478195.7,286047001.0,N
1619478215.5,286047000.1,N
1619478235.4,286047002.5,N
1619478255.2,286047001.7,N
1619478275.0,286047001.8,N
1619478276.0,286047001.8,N
1619478295.8,286047001.6,N
1619478315.6,286047001.8,N
1619478335.5,286047001.4,N
1619478355.3,286047001.6,N
1619478375.1,286047003.9,N
1619478395.9,286047004.4,N
1619478415.7,286047002.8,N
1619478435.6,286047002.3,N
1619478455.4,286047002.2,N
1619478475.2,286047004.1,N
1619478495.1,286047001.4,N
1619478496.0,286047001.4,N
1619478515.8,286047004.2,N
1619478535.7,286047004.4,N
1619478555.5,286047003.8,N
1619478575.3,286047005.5,Y
1619478595.2,286047005.9,P
1619478615.0,286047004.8,N
1619478615.9,286047004.8,N
1619478635.8,286047002.9,N
1619478655.6,286047003.7,N
1619478675.4,286047003.0,N
1619478695.3,286047001.4,N
1619478715.1,286047002.7,N
1619478735.8,286046999.8,N
1619478755.7,286047002.5,N
1619478775.5,286047002.6,N
1619478795.4,286047002.3,N
1619478845.2,286047000.7,E
1619478855.1,286046999.7,N
1619478875.9,286046999.9,P
1619478895.7,286047002.5,P
1619478915.6,286047000.1,N
1619478935.4,286046998.7,N
1619478955.2,286046999.6,N
1619478975.1,286046998.5,N
1619478976.0,286046998.5,N
1619478995.8,286047000.6,N
1619479015.6,286046998.8,N
1619479035.5,286046999.9,N
1619479055.3,286047003.8,Y
1619479075.2,286047004.0,P
1619479095.9,286047002.4,N
1619479115.7,286047002.7,N
1619479135.6,286047000.4,N
1619479155.4,286046999.9,N
1619479175.3,286046998.2,N
1619479195.1,286047000.4,N
1619479196.0,286047000.4,N
1619479215.8,286046999.8,N
1619479235.7,286047000.3,N
1619479255.5,286047000.0,N
1619479275.4,286047002.6,N
1619479295.2,286047001.8,N
1619479315.0,286047000.2,N
1619479315.9,286047000.2,N
1619479335.8,286047000.1,N
1619479355.6,286047000.5,N
1619479375.4,286047000.5,N
1619479395.3,286047000.2,N
1619479415.1,286047002.8,N
1619479435.9,286047001.7,N
1619479455.7,286047003.0,N
1619479475.5,286047004.4,Y
1619479495.4,286047000.8,P
1619479515.2,286046998.3,P
1619479535.1,286046999.3,N
1619479536.0,286046999.3,N
1619479555.8,286047000.8,N
1619479575.6,286047002.8,N
1619479595.5,286047003.9,N
1619479615.3,286047004.7,N
1619479635.2,286047001.7,N
1619479655.9,286047000.3,N
1619479675.7,286046998.3,N
1619479695.6,286046999.2,N
1619479715.4,286046999.0,N
1619479735.2,286046998.6,N
1619479755.1,286047001.1,N
1619479756.0,286047001.1,N
1619479775.8,286047002.2,N
1619479795.7,286047002.1,N
1619479815.5,286046999.8,N
1619479835.3,286046999.8,N
1619479855.2,286047004.2,N
1619479875.0,286047001.9,N
1619479875.9,286047001.9,N
1619479895.8,286047001.7,N
1619479915.6,286047002.3,N
1619479935.4,286047001.3,N
1619479955.3,286047003.6,N
1619479975.1,286047004.1,N
1619479995.8,286047001.3,N
1619480015.7,286047002.0,N
1619480035.5,286047002.4,N
1619480055.4,286047000.6,N
1619480075.2,286046998.7,N
1619480095.0,286047000.3,N
1619480095.9,286047000.3,N
1619480115.8,286047001.2,N
1619480135.6,286046997.4,N
1619480155.5,286046997.5,N
1619480175.3,286046998.8,N
1619480195.1,286046996.7,N
1619480215.9,286046999.4,N
1619480235.7,286046999.2,N
1619480255.6,286046998.1,N
1619480275.4,286047000.1,N
1619480295.2,286047000.6,N
1619480315.1,286047000.9,N
1619480316.0,286047000.9,N
1619480335.8,286047000.4,N
1619480355.7,286047000.2,N
1619480375.5,286047002.3,N
1619480395.3,286047000.2,N
1619480415.2,286047002.8,N
1619480435.9,286047001.8,N
1619480455.7,286046999.7,N
1619480475.6,286047001.1,N
1619480495.4,286047001.2,N
1619480515.2,286047002.5,N
1619480535.1,286047004.4,N
1619480536.0,286047004.4,N
1619480555.8,286047000.0,N
1619480575.7,286047001.8,N
1619480595.5,286047002.2,N
1619480615.3,286047003.8,N
1619480635.2,286047000.1,N
1619480655.0,286047002.4,N
1619480655.9,286047002.4,N
1619480675.8,286046999.9,N
1619480695.6,286047002.4,N
1619480715.4,286047001.2,N
1619480735.3,286047000.4,N
1619480755.1,286047001.9,N
1619480775.8,286047002.8,N
1619480795.7,286047001.4,N
1619480815.5,286047001.7,N
1619480835.4,286047004.2,Y
1619480855.2,286047002.2,P
1619480875.0,286047004.4,P
1619480876.0,286047004.4,P
1619480895.8,286047004.2,Y
1619480915.6,286047000.7,P
1619480935.5,286046999.0,N
1619480955.3,286046996.6,N
1619480975.1,286046998.9,N
1619480995.9,286046999.1,N
1619481015.7,286046999.0,N
1619481035.6,286046999.0,N
1619481055.4,286046998.1,N
1619481075.2,286046997.8,N
1619481095.1,286046997.3,N
1619481096.0,286046997.3,N
1619481115.8,286046999.1,N
1619481135.7,286046999.5,N
1619481155.5,286046996.5,N
1619481175.3,286046995.6,N
1619481195.2,286046997.7,N
1619481215.0,286046995.9,N
1619481215.9,286046995.9,N
1619481235.8,286046995.1,N
1619481255.6,286046995.7,N
1619481275.4,286046995.6,N
1619481295.3,286046996.5,N
1619481315.1,286046997.3,N
1619481335.8,286046997.0,N
1619481355.7,286046999.5,N
1619481375.5,286046997.8,N
1619481395.4,286046997.2,N
1619481415.2,286046998.9,N
1619481435.0,286046998.2,N
1619481435.9,286046998.2,N
1619481455.8,286046998.8,N
1619481475.6,286046996.6,N
1619481495.4,286046995.0,Y
1619481515.3,286046999.0,P
1619481535.1,286047002.3,P
1619481555.9,286046999.8,N
1619481575.7,286047001.1,N
1619481595.5,286047002.3,N
